This demonstration page uses our WeatherBlox Daily Observations layout. Learn more.

Left ArrowRight Arrow

34.74481, -87.66753

Hourly Observations for May 24, 2017

Temp ( °F °C ) Dew Point ( °F °C ) Humidity (%) Winds ( mph kmh ) Pressure ( in mb ) Visibility ( mi km ) Precip ( " mm )
12:53 am 00:53 Cloudy 67 19.4 63 17.2 87 87 SSE 3 6 29.62 1003 10 16 0.00 0.00
1:53 am 01:53 Cloudy 66 18.9 63 17.2 90 90 Calm 29.59 1002 10 16 0.00 0.00
2:53 am 02:53 Cloudy with Heavy Rain 65 18.3 62 16.7 90 90 SW 9 15 29.58 1002 3 5 0.17 4.32
3:02 am 03:02 Cloudy with Thunderstorms 64 17.8 61 16.1 90 90 SW 9 15 29.59 1002 3 5 0.08 2.03
3:11 am 03:11 Cloudy with Rain 65 18.3 62 16.7 90 90 SSW 5 7 29.59 1002 3 5 0.13 3.30
3:28 am 03:28 Cloudy with Light Rain 65 18.3 62 16.7 90 90 W 10 17 29.59 1002 8 13 0.16 4.06
3:53 am 03:53 Cloudy with Rain 64 17.8 61 16.1 90 90 W 8 13 29.56 1001 8 13 0.19 4.83
4:16 am 04:16 Cloudy with Light Rain 63 17.2 60 15.6 90 90 Calm 29.56 1001 10 16 0.03 0.76
4:53 am 04:53 Mostly Clear 62 16.7 60 15.6 93 93 NW 3 6 29.52 1000 10 16 0.03 0.76
5:27 am 05:27 Mostly Cloudy 63 17.2 60 15.6 90 90 WSW 3 6 29.53 1000 10 16 0.00 0.00
5:34 am 05:34 Cloudy 63 17.2 60 15.6 90 90 Calm 29.53 1000 10 16 0.00 0.00
5:53 am 05:53 Cloudy 63 17.2 60 15.6 90 90 SW 3 6 29.52 1000 10 16 0.00 0.00
6:00 am 06:00 Cloudy 63 17.2 60 15.6 90 90 Calm 29.53 1000 10 16 0.00 0.00
6:21 am 06:21 Cloudy 63 17.2 60 15.6 90 90 Calm 29.53 1000 10 16 0.01 0.25
6:53 am 06:53 Cloudy 63 17.2 60 15.6 90 90 S 5 7 29.50 999 10 16 0.01 0.25
7:12 am 07:12 Cloudy 64 17.8 60 15.6 87 87 SSW 6 9 29.50 999 10 16 0.00 0.00
7:48 am 07:48 Cloudy 64 18 61 16 88 88 SSW 9 15 29.50 999 10 16 0.00 0.00
7:53 am 07:53 Cloudy 66 18.9 61 16.1 84 84 SSW 9 15 29.48 998 10 16 0.00 0.00
8:53 am 08:53 Cloudy 65 18.3 59 15 81 81 SW 15 24 29.46 998 10 16 0.00 0.00
9:05 am 09:05 Cloudy with Light Rain 64 17.8 59 15 84 84 SW 10 17 29.47 998 8 13 0.01 0.25
9:21 am 09:21 Cloudy with Light Rain 62 16.7 59 15 90 90 W 18 30 29.47 998 8 13 0.07 1.78
9:27 am 09:27 Cloudy with Light Rain 61 16.1 57 13.9 87 87 WNW 18 30 29.50 999 10 16 0.07 1.78
9:53 am 09:53 Mostly Cloudy 65 18.3 60 15.6 84 84 WNW 20 31 29.47 998 10 16 0.07 1.78
10:44 am 10:44 Mostly Cloudy 66 18.9 58 14.4 75 75 WNW 22 35 29.53 1000 10 16 0.00 0.00
10:53 am 10:53 Mostly Cloudy 65 18.3 57 13.9 76 76 WNW 17 28 29.51 999 10 16 0.00 0.00
11:53 am 11:53 Cloudy 63 17.2 55 12.8 76 76 WNW 12 19 29.54 1001 10 16 0.00 0.00
12:10 pm 12:10 Cloudy 66 18.9 55 12.8 68 68 NW 13 20 29.56 1001 10 16 0.00 0.00
12:38 pm 12:38 Mostly Cloudy 66 18.9 54 12.2 65 65 NW 14 22 29.56 1001 10 16 0.00 0.00
12:53 pm 12:53 Mostly Cloudy 66 18.9 53 11.7 63 63 WNW 13 20 29.55 1001 10 16 0.00 0.00
1:08 pm 13:08 Mostly Cloudy 68 20 54 12.2 61 61 NW 15 24 29.56 1001 10 16 0.00 0.00
1:53 pm 13:53 Mostly Cloudy 70 21.1 52 11.1 53 53 NW 12 19 29.56 1001 10 16 0.00 0.00
2:53 pm 14:53 Mostly Cloudy 68 20 50 10 53 53 WNW 10 17 29.55 1001 10 16 0.00 0.00
3:53 pm 15:53 Mostly Cloudy 65 18.3 57 13.9 76 76 Calm 29.56 1001 10 16 0.04 1.02
4:53 pm 16:53 Mostly Sunny 65 18.3 55 12.8 70 70 WNW 3 6 29.54 1001 10 16 0.00 0.00
5:53 pm 17:53 Cloudy with Light Rain 62 16.7 56 13.3 80 80 WSW 7 11 29.55 1001 10 16 0.01 0.25
6:33 pm 18:33 Cloudy with Nearby Thunderstorms 60 15.6 56 13.3 86 86 WSW 10 17 29.59 1002 10 16 0.02 0.51
6:48 pm 18:48 Cloudy with Light Rain 61 16 55 13 83 83 WSW 12 19 29.59 1002 10 16 0.02 0.51
6:53 pm 18:53 Cloudy with Light Rain 59 15 54 12.2 83 83 WSW 10 17 29.57 1002 10 16 0.02 0.51
7:53 pm 19:53 Cloudy 57 13.9 54 12.2 90 90 WSW 10 17 29.58 1002 10 16 0.05 1.27
8:53 pm 20:53 Cloudy 57 13.9 54 12.2 90 90 W 12 19 29.60 1003 10 16 0.00 0.00
9:53 pm 21:53 Cloudy 57 13.9 53 11.7 87 87 WNW 10 17 29.62 1003 10 16 0.00 0.00
10:53 pm 22:53 Cloudy 57 13.9 53 11.7 87 87 WNW 5 7 29.64 1004 10 16 0.00 0.00
11:53 pm 23:53 Mostly Cloudy 56 13.3 53 11.7 90 90 W 7 11 29.65 1004 10 16 0.00 0.00

Powered by AerisWeather